Regional Weather Roundup
Issued by NWS Newport/Morehead, NC

Current Version | Previous Version | Graphics & Text | Print | Product List | Glossary Off
Versions: 1 2 3 4 5 6 7 8 9 10 11 12 13 14 15 16 17 18 19 20 21 22 23 24 25 26 27 28 29 30 31 32 33 34 35 36 37 38 39 40 41 42 43 44 45 46 47 48 49 50

000
ASUS42 KMHX 051812
RWRMHX
WEATHER ROUNDUP FOR EASTERN NORTH CAROLINA
NATIONAL WEATHER SERVICE NEWPORT/MOREHEAD CITY NC
100 PM EST THU MAR 05 2015

NOTE: "FAIR" INDICATES FEW OR NO CLOUDS BELOW 12,000 FEET
WITH NO SIGNIFICANT WEATHER AND/OR OBSTRUCTIONS TO VISIBILITY

NCZ015>017-031-032-045>047-102-103-051900-
NORTH COAST

CITY           SKY/WX    TMP DP  RH WIND       PRES   REMARKS
EDENTON        DRIZZLE   39  38  95 NE9       30.02F
ELIZABETH CITY LGT RAIN  39  36  89 N18       30.03S
KITTY HAWK     CLOUDY    37  37 100 N13G20    29.99F FOG
MANTEO         CLOUDY    37  37 100 N20G28    30.00F

$$

NCZ045>047-081-094-103-104-051900-
CENTRAL COAST

CITY           SKY/WX    TMP DP  RH WIND       PRES   REMARKS
FRISCO         FOG       44  43  96 N12G22    29.97F VSB 1
SWANQUARTER      N/A     45 N/A N/A NE18G28   29.94S

$$

NCZ095-097-098-100-101-051900-
SOUTHERN COAST

CITY           SKY/WX    TMP DP  RH WIND       PRES   REMARKS
BEAUFORT       CLOUDY    61  60  97 SW21G30   29.95F FOG
CEDAR ISLAND     N/A     72 N/A N/A S22G28    29.97S
JACKSONVILLE   FAIR      80  60  50 SW20G28   29.90F
PINEY ISLAND     N/A    N/A N/A N/A MISG      29.92F
WILMINGTON     FAIR      74  63  68 SW16G26   29.93F


$$

NCZ011>013-027>030-043-044-078>080-089-090>093-098-051900-
COASTAL PLAIN

CITY           SKY/WX    TMP DP  RH WIND       PRES   REMARKS
AHOSKIE        LGT RAIN  36  34  94 N12G21    30.04F
CLINTON        CLOUDY    74  63  68 SW13G24   29.91F
ELIZABETHTOWN  CLOUDY    77  61  57 SW17G23   29.92F
GOLDSBORO      LGT RAIN  52  52 100 N15       29.91R
GREENVILLE     LGT RAIN  43  41  93 NE9       30.00F
HAVELOCK       FAIR      76  60  57 S15G26    29.92F
KENANSVILLE    PTSUNNY   75  59  57 SW16G32   29.91F
KINSTON        CLOUDY    52  48  87 NE17      29.95R
NEW BERN         N/A     83  60  45 SW28G38   29.90F
RICHLANDS      PTSUNNY   81  61  50 SW21G29   29.90F
ROCKY MOUNT    RAIN      40  38  93 NE16G26   30.00R FOG
WASHINGTON     CLOUDY    42  40  93 NE9G20    29.99S
WHITEVILLE     CLOUDY    80  61  52 SW15G23   29.91F

$$

AMZ130-135-150-152-154-156-158-170-250-252-270-ANZ085-086-088-633-658-670-051900-
MARINE OBSERVATIONS

STATION/POSITION TIME  TEMP    WIND        PRES    WAVE   SWELL
                       AIR SEA DIR/SP/G            HT/PER HT/PER
                 (UTC) (F)     (DEG/KT/KT) (MB)    (FT/S) (FT/S)
CHESAPEAKE LIGHT 1700   35      20/ 18/ 19 1018.1
64 E VA BEACH    1750   45 51   20/ 23/ 27 1014.3    8/ 6   2/11
DUCK             1700   36 36   10/ 17/ 21 1015.7
2 E DUCK         1711      36                N/A     5/ 5   2/11
10 NE DUCK       1722      38                N/A     6/ 6   2/11
OREGON INLET     1700   38 50  350/ 13/ 19 1016.2
HATTERAS CG      1700   63 50  230/ 12/ 18 1015.0
CAPE LOOKOUT     1800   59     230/ 13/ 18 1014.5
BEAUFORT LAB     1700   58 47  220/ 12/ 16 1014.0
27 SE WRIGHTSVLE NOT AVBL
5 SE WRIGHTSVLE  NOT AVBL
225 S CAPE HAT   1750   73 73  220/ 19/ 23 1019.8    7/ 7   2/11
41 SE CHARLESTON 1750   70 68  210/ 21/ 27 1015.5    6/ 7   3/10

$$


USA.gov is the U.S. government's official web portal to all federal, state and local government web resources and services.